Year,Month,Day,Hour,Minute,Value (Times are PST for temperature in C)
2009,10,07,00,00,7.70
2009,10,07,00,01,7.70
2009,10,07,00,02,7.70
2009,10,07,00,03,7.80
2009,10,07,00,04,7.80
2009,10,07,00,05,7.80
2009,10,07,00,06,7.80
2009,10,07,00,07,7.80
2009,10,07,00,08,7.80
2009,10,07,00,09,7.80
2009,10,07,00,10,7.80
2009,10,07,00,11,7.80
2009,10,07,00,12,7.80
2009,10,07,00,13,7.80
2009,10,07,00,14,7.80
2009,10,07,00,15,7.80
2009,10,07,00,16,7.80
2009,10,07,00,17,7.90
2009,10,07,00,18,7.90
2009,10,07,00,19,7.90
2009,10,07,00,20,7.90
2009,10,07,00,21,7.90
2009,10,07,00,22,8.00
2009,10,07,00,23,8.00
2009,10,07,00,24,8.00
2009,10,07,00,25,8.00
2009,10,07,00,26,8.10
2009,10,07,00,27,8.10
2009,10,07,00,28,8.10
2009,10,07,00,29,8.10
2009,10,07,00,30,8.10
2009,10,07,00,31,8.10
2009,10,07,00,32,8.20
2009,10,07,00,33,8.20
2009,10,07,00,34,8.20
2009,10,07,00,35,8.20
2009,10,07,00,36,8.20
2009,10,07,00,37,8.20
2009,10,07,00,38,8.30
2009,10,07,00,39,8.30
2009,10,07,00,40,8.30
2009,10,07,00,41,8.30
2009,10,07,00,42,8.30
2009,10,07,00,43,8.30
2009,10,07,00,44,8.40
2009,10,07,00,45,8.40
2009,10,07,00,46,8.40
2009,10,07,00,47,8.40
2009,10,07,00,48,8.50
2009,10,07,00,49,8.50
2009,10,07,00,50,8.50
2009,10,07,00,51,8.50
2009,10,07,00,52,8.60
2009,10,07,00,53,8.60
2009,10,07,00,54,8.60
2009,10,07,00,55,8.60
2009,10,07,00,56,8.70
2009,10,07,00,57,8.70
2009,10,07,00,58,8.70
2009,10,07,00,59,8.70
2009,10,07,01,00,8.80
2009,10,07,01,01,8.80
2009,10,07,01,02,8.80
2009,10,07,01,03,8.80
2009,10,07,01,04,8.80
2009,10,07,01,05,8.90
2009,10,07,01,06,8.90
2009,10,07,01,07,8.90
2009,10,07,01,08,8.90
2009,10,07,01,09,8.90
2009,10,07,01,10,9.00
2009,10,07,01,11,9.00
2009,10,07,01,12,9.00
2009,10,07,01,13,9.10
2009,10,07,01,14,9.10
2009,10,07,01,15,9.10
2009,10,07,01,16,9.10
2009,10,07,01,17,9.20
2009,10,07,01,18,9.20
2009,10,07,01,19,9.20
2009,10,07,01,20,9.20
2009,10,07,01,21,9.20
2009,10,07,01,22,9.30
2009,10,07,01,23,9.30
2009,10,07,01,24,9.40
2009,10,07,01,25,9.40
2009,10,07,01,26,9.50
2009,10,07,01,27,9.50
2009,10,07,01,28,9.60
2009,10,07,01,29,9.70
2009,10,07,01,30,9.70
2009,10,07,01,31,9.80
2009,10,07,01,32,9.90
2009,10,07,01,33,10.00
2009,10,07,01,34,10.00
2009,10,07,01,35,10.10
2009,10,07,01,36,10.20
2009,10,07,01,37,10.20
2009,10,07,01,38,10.30
2009,10,07,01,39,10.30
2009,10,07,01,40,10.40
2009,10,07,01,41,10.40
2009,10,07,01,42,10.40
2009,10,07,01,43,10.50
2009,10,07,01,44,10.50
2009,10,07,01,45,10.60
2009,10,07,01,46,10.60
2009,10,07,01,47,10.60
2009,10,07,01,48,10.70
2009,10,07,01,49,10.70
2009,10,07,01,50,10.70
2009,10,07,01,51,10.70
2009,10,07,01,52,10.70
2009,10,07,01,53,10.70
2009,10,07,01,54,10.80
2009,10,07,01,55,10.80
2009,10,07,01,56,10.80
2009,10,07,01,57,10.80
2009,10,07,01,58,10.80
2009,10,07,01,59,10.80
2009,10,07,02,00,10.80
2009,10,07,02,01,10.80
2009,10,07,02,02,10.80
2009,10,07,02,03,10.80
2009,10,07,02,04,10.80
2009,10,07,02,05,10.80
2009,10,07,02,06,10.80
2009,10,07,02,07,10.80
2009,10,07,02,08,10.90
2009,10,07,02,09,10.90
2009,10,07,02,10,10.90
2009,10,07,02,11,10.90
2009,10,07,02,12,10.90
2009,10,07,02,13,10.90
2009,10,07,02,14,10.90
2009,10,07,02,15,11.00
2009,10,07,02,16,11.00
2009,10,07,02,17,11.00
2009,10,07,02,18,11.00
2009,10,07,02,19,11.00
2009,10,07,02,20,11.00
2009,10,07,02,21,11.00
2009,10,07,02,22,11.00
2009,10,07,02,23,11.10
2009,10,07,02,24,11.10
2009,10,07,02,25,11.10
2009,10,07,02,26,11.10
2009,10,07,02,27,11.10
2009,10,07,02,28,11.20
2009,10,07,02,29,11.20
2009,10,07,02,30,11.20
2009,10,07,02,31,11.20
2009,10,07,02,32,11.30
2009,10,07,02,33,11.30
2009,10,07,02,34,11.30
2009,10,07,02,35,11.30
2009,10,07,02,36,11.30
2009,10,07,02,37,11.30
2009,10,07,02,38,11.40
2009,10,07,02,39,11.40
2009,10,07,02,40,11.40
2009,10,07,02,41,11.40
2009,10,07,02,42,11.50
2009,10,07,02,43,11.50
2009,10,07,02,44,11.50
2009,10,07,02,45,11.60
2009,10,07,02,46,11.60
2009,10,07,02,47,11.60
2009,10,07,02,48,11.60
2009,10,07,02,49,11.70
2009,10,07,02,50,11.70
2009,10,07,02,51,11.70
2009,10,07,02,52,11.70
2009,10,07,02,53,11.80
2009,10,07,02,54,11.80
2009,10,07,02,55,11.80
2009,10,07,02,56,11.80
2009,10,07,02,57,11.90
2009,10,07,02,58,11.90
2009,10,07,02,59,11.90
2009,10,07,03,00,12.00
2009,10,07,03,01,12.00
2009,10,07,03,02,12.00
2009,10,07,03,03,12.10
2009,10,07,03,04,12.10
2009,10,07,03,05,12.10
2009,10,07,03,06,12.20
2009,10,07,03,07,12.20
2009,10,07,03,08,12.20
2009,10,07,03,09,12.20
2009,10,07,03,10,12.20
2009,10,07,03,11,12.20
2009,10,07,03,12,12.20
2009,10,07,03,13,12.20
2009,10,07,03,14,12.20
2009,10,07,03,15,12.20
2009,10,07,03,16,12.20
2009,10,07,03,17,12.10
2009,10,07,03,18,12.10
2009,10,07,03,19,12.10
2009,10,07,03,20,12.10
2009,10,07,03,21,12.10
2009,10,07,03,22,12.10
2009,10,07,03,23,12.00
2009,10,07,03,24,12.00
2009,10,07,03,25,12.00
2009,10,07,03,26,11.90
2009,10,07,03,27,11.90
2009,10,07,03,28,11.90
2009,10,07,03,29,11.90
2009,10,07,03,30,11.90
2009,10,07,03,31,11.90
2009,10,07,03,32,11.90
2009,10,07,03,33,11.90
2009,10,07,03,34,11.90
2009,10,07,03,35,11.90
2009,10,07,03,36,11.90
2009,10,07,03,37,11.90
2009,10,07,03,38,11.90
2009,10,07,03,39,11.90
2009,10,07,03,40,11.80
2009,10,07,03,41,11.80
2009,10,07,03,42,11.80
2009,10,07,03,43,11.80
2009,10,07,03,44,11.80
2009,10,07,03,45,11.70
2009,10,07,03,46,11.70
2009,10,07,03,47,11.70
2009,10,07,03,48,11.70
2009,10,07,03,49,11.70
2009,10,07,03,50,11.70
2009,10,07,03,51,11.70
2009,10,07,03,52,11.80
2009,10,07,03,53,11.80
2009,10,07,03,54,11.70
2009,10,07,03,55,11.70
2009,10,07,03,56,11.70
2009,10,07,03,57,11.70
2009,10,07,03,58,11.70
2009,10,07,03,59,11.70
2009,10,07,04,00,11.70
2009,10,07,04,01,11.70
2009,10,07,04,02,11.70
2009,10,07,04,03,11.70
2009,10,07,04,04,11.70
2009,10,07,04,05,11.70
2009,10,07,04,06,11.70
2009,10,07,04,07,11.70
2009,10,07,04,08,11.60
2009,10,07,04,09,11.60
2009,10,07,04,10,11.60
2009,10,07,04,11,11.60
2009,10,07,04,12,11.60
2009,10,07,04,13,11.60
2009,10,07,04,14,11.60
2009,10,07,04,15,11.50
2009,10,07,04,16,11.50
2009,10,07,04,17,11.50
2009,10,07,04,18,11.40
2009,10,07,04,19,11.40
2009,10,07,04,20,11.40
2009,10,07,04,21,11.40
2009,10,07,04,22,11.40
2009,10,07,04,23,11.40
2009,10,07,04,24,11.40
2009,10,07,04,25,11.40
2009,10,07,04,26,11.40
2009,10,07,04,27,11.40
2009,10,07,04,28,11.40
2009,10,07,04,29,11.40
2009,10,07,04,30,11.40
2009,10,07,04,31,11.40
2009,10,07,04,32,11.40
2009,10,07,04,33,11.30
2009,10,07,04,34,11.30
2009,10,07,04,35,11.30
2009,10,07,04,36,11.30
2009,10,07,04,37,11.30
2009,10,07,04,38,11.30
2009,10,07,04,39,11.30
2009,10,07,04,40,11.30
2009,10,07,04,41,11.30
2009,10,07,04,42,11.30
2009,10,07,04,43,11.30
2009,10,07,04,44,11.20
2009,10,07,04,45,11.20
2009,10,07,04,46,11.20
2009,10,07,04,47,11.20
2009,10,07,04,48,11.20
2009,10,07,04,49,11.20
2009,10,07,04,50,11.20
2009,10,07,04,51,11.20
2009,10,07,04,52,11.10
2009,10,07,04,53,11.10
2009,10,07,04,54,11.10
2009,10,07,04,55,11.10
2009,10,07,04,56,11.10
2009,10,07,04,57,11.10
2009,10,07,04,58,11.00
2009,10,07,04,59,11.00
2009,10,07,05,00,11.00
2009,10,07,05,01,10.90
2009,10,07,05,02,10.90
2009,10,07,05,03,10.90
2009,10,07,05,04,10.80
2009,10,07,05,05,10.80
2009,10,07,05,06,10.80
2009,10,07,05,07,10.80
2009,10,07,05,08,10.70
2009,10,07,05,09,10.70
2009,10,07,05,10,10.70
2009,10,07,05,11,10.60
2009,10,07,05,12,10.60
2009,10,07,05,13,10.60
2009,10,07,05,14,10.60
2009,10,07,05,15,10.60
2009,10,07,05,16,10.60
2009,10,07,05,17,10.60
2009,10,07,05,18,10.60
2009,10,07,05,19,10.60
2009,10,07,05,20,10.60
2009,10,07,05,21,10.60
2009,10,07,05,22,10.60
2009,10,07,05,23,10.60
2009,10,07,05,24,10.60
2009,10,07,05,25,10.60
2009,10,07,05,26,10.60
2009,10,07,05,27,10.60
2009,10,07,05,28,10.60
2009,10,07,05,29,10.60
2009,10,07,05,30,10.60
2009,10,07,05,31,10.60
2009,10,07,05,32,10.60
2009,10,07,05,33,10.60
2009,10,07,05,34,10.60
2009,10,07,05,35,10.60
2009,10,07,05,36,10.60
2009,10,07,05,37,10.60
2009,10,07,05,38,10.60
2009,10,07,05,39,10.60
2009,10,07,05,40,10.60
2009,10,07,05,41,10.60
2009,10,07,05,42,10.60
2009,10,07,05,43,10.60
2009,10,07,05,44,10.60
2009,10,07,05,45,10.60
2009,10,07,05,46,10.60
2009,10,07,05,47,10.60
2009,10,07,05,48,10.60
2009,10,07,05,49,10.60
2009,10,07,05,50,10.60
2009,10,07,05,51,10.60
2009,10,07,05,52,10.60
2009,10,07,05,53,10.60
2009,10,07,05,54,10.70
2009,10,07,05,55,10.70
2009,10,07,05,56,10.70
2009,10,07,05,57,10.70
2009,10,07,05,58,10.70
2009,10,07,05,59,10.70
2009,10,07,06,00,10.70
2009,10,07,06,01,10.70
2009,10,07,06,02,10.70
2009,10,07,06,03,10.80
2009,10,07,06,04,10.80
2009,10,07,06,05,10.80
2009,10,07,06,06,10.80
2009,10,07,06,07,10.80
2009,10,07,06,08,10.80
2009,10,07,06,09,10.80
2009,10,07,06,10,10.70
2009,10,07,06,11,10.70
2009,10,07,06,12,10.70
2009,10,07,06,13,10.70
2009,10,07,06,14,10.70
2009,10,07,06,15,10.70
2009,10,07,06,16,10.70
2009,10,07,06,17,10.70
2009,10,07,06,18,10.70
2009,10,07,06,19,10.70
2009,10,07,06,20,10.70
2009,10,07,06,21,10.70
2009,10,07,06,22,10.70
2009,10,07,06,23,10.70
2009,10,07,06,24,10.70
2009,10,07,06,25,10.70
2009,10,07,06,26,10.70
2009,10,07,06,27,10.70
2009,10,07,06,28,10.70
2009,10,07,06,29,10.70
2009,10,07,06,30,10.70
2009,10,07,06,31,10.70
2009,10,07,06,32,10.70
2009,10,07,06,33,10.70
2009,10,07,06,34,10.70
2009,10,07,06,35,10.70
2009,10,07,06,36,10.70
2009,10,07,06,37,10.70
2009,10,07,06,38,10.70
2009,10,07,06,39,10.70
2009,10,07,06,40,10.70
2009,10,07,06,41,10.70
2009,10,07,06,42,10.60
2009,10,07,06,43,10.60
2009,10,07,06,44,10.60
2009,10,07,06,45,10.60
2009,10,07,06,46,10.60
2009,10,07,06,47,10.60
2009,10,07,06,48,10.60
2009,10,07,06,49,10.60
2009,10,07,06,50,10.60
2009,10,07,06,51,10.50
2009,10,07,06,52,10.50
2009,10,07,06,53,10.50
2009,10,07,06,54,10.50
2009,10,07,06,55,10.40
2009,10,07,06,56,10.40
2009,10,07,06,57,10.40
2009,10,07,06,58,10.30
2009,10,07,06,59,10.30
2009,10,07,07,00,10.30
2009,10,07,07,01,10.30
2009,10,07,07,02,10.20
2009,10,07,07,03,10.20
2009,10,07,07,04,10.20
2009,10,07,07,05,10.20
2009,10,07,07,06,10.20
2009,10,07,07,07,10.20
2009,10,07,07,08,10.20
2009,10,07,07,09,10.20
2009,10,07,07,10,10.10
2009,10,07,07,11,10.10
2009,10,07,07,12,10.10
2009,10,07,07,13,10.10
2009,10,07,07,14,10.10
2009,10,07,07,15,10.10
2009,10,07,07,16,10.00
2009,10,07,07,17,10.00
2009,10,07,07,18,10.00
2009,10,07,07,19,10.00
2009,10,07,07,20,9.90
2009,10,07,07,21,9.90
2009,10,07,07,22,9.90
2009,10,07,07,23,9.90
2009,10,07,07,24,9.90
2009,10,07,07,25,9.90
2009,10,07,07,26,9.80
2009,10,07,07,27,9.80
2009,10,07,07,28,9.80
2009,10,07,07,29,9.80
2009,10,07,07,30,9.80
2009,10,07,07,31,9.80
2009,10,07,07,32,9.70
2009,10,07,07,33,9.70
2009,10,07,07,34,9.70
2009,10,07,07,35,9.70
2009,10,07,07,36,9.70
2009,10,07,07,37,9.70
2009,10,07,07,38,9.70
2009,10,07,07,39,9.60
2009,10,07,07,40,9.60
2009,10,07,07,41,9.60
2009,10,07,07,42,9.60
2009,10,07,07,43,9.60
2009,10,07,07,44,9.60
2009,10,07,07,45,9.60
2009,10,07,07,46,9.50
2009,10,07,07,47,9.50
2009,10,07,07,48,9.50
2009,10,07,07,49,9.50
2009,10,07,07,50,9.50
2009,10,07,07,51,9.50
2009,10,07,07,52,9.50
2009,10,07,07,53,9.50
2009,10,07,07,54,9.50
2009,10,07,07,55,9.50
2009,10,07,07,56,9.50
2009,10,07,07,57,9.50
2009,10,07,07,58,9.50
2009,10,07,07,59,9.50
2009,10,07,08,00,9.50
2009,10,07,08,01,9.50
2009,10,07,08,02,9.50
2009,10,07,08,03,9.50
2009,10,07,08,04,9.40
2009,10,07,08,05,9.40
2009,10,07,08,06,9.40
2009,10,07,08,07,9.40
2009,10,07,08,08,9.40
2009,10,07,08,09,9.40
2009,10,07,08,10,9.40
2009,10,07,08,11,9.40
2009,10,07,08,12,9.40
2009,10,07,08,13,9.40
2009,10,07,08,14,9.40
2009,10,07,08,15,9.50
2009,10,07,08,16,9.50
2009,10,07,08,17,9.50
2009,10,07,08,18,9.50
2009,10,07,08,19,9.50
2009,10,07,08,20,9.50
2009,10,07,08,21,9.50
2009,10,07,08,22,9.60
2009,10,07,08,23,9.60
2009,10,07,08,24,9.60
2009,10,07,08,25,9.60
2009,10,07,08,26,9.70
2009,10,07,08,27,9.70
2009,10,07,08,28,9.70
2009,10,07,08,29,9.70
2009,10,07,08,30,9.80
2009,10,07,08,31,9.80
2009,10,07,08,32,9.90
2009,10,07,08,33,10.00
2009,10,07,08,34,10.00
2009,10,07,08,35,10.10
2009,10,07,08,36,10.10
2009,10,07,08,37,10.20
2009,10,07,08,38,10.20
2009,10,07,08,39,10.30
2009,10,07,08,40,10.30
2009,10,07,08,41,10.30
2009,10,07,08,42,10.40
2009,10,07,08,43,10.40
2009,10,07,08,44,10.50
2009,10,07,08,45,10.50
2009,10,07,08,46,10.60
2009,10,07,08,47,10.60
2009,10,07,08,48,10.70
2009,10,07,08,49,10.70
2009,10,07,08,50,10.80
2009,10,07,08,51,10.80
2009,10,07,08,52,10.80
2009,10,07,08,53,10.90
2009,10,07,08,54,10.90
2009,10,07,08,55,10.90
2009,10,07,08,56,11.00
2009,10,07,08,57,11.00
2009,10,07,08,58,11.10
2009,10,07,08,59,11.10
2009,10,07,09,00,11.20
2009,10,07,09,01,11.20
2009,10,07,09,02,11.30
2009,10,07,09,03,11.30
2009,10,07,09,04,11.40
2009,10,07,09,05,11.40
2009,10,07,09,06,11.40
2009,10,07,09,07,11.50
2009,10,07,09,08,11.50
2009,10,07,09,09,11.60
2009,10,07,09,10,11.60
2009,10,07,09,11,11.60
2009,10,07,09,12,11.70
2009,10,07,09,13,11.70
2009,10,07,09,14,11.70
2009,10,07,09,15,11.80
2009,10,07,09,16,11.80
2009,10,07,09,17,11.80
2009,10,07,09,18,11.80
2009,10,07,09,19,11.80
2009,10,07,09,20,11.80
2009,10,07,09,21,11.90
2009,10,07,09,22,11.90
2009,10,07,09,23,11.90
2009,10,07,09,24,11.90
2009,10,07,09,25,11.90
2009,10,07,09,26,11.90
2009,10,07,09,27,11.90
2009,10,07,09,28,11.90
2009,10,07,09,29,12.00
2009,10,07,09,30,12.00
2009,10,07,09,31,12.00
2009,10,07,09,32,12.00
2009,10,07,09,33,12.00
2009,10,07,09,34,12.10
2009,10,07,09,35,12.10
2009,10,07,09,36,12.10
2009,10,07,09,37,12.10
2009,10,07,09,38,12.10
2009,10,07,09,39,12.10
2009,10,07,09,40,12.10
2009,10,07,09,41,12.10
2009,10,07,09,42,12.10
2009,10,07,09,43,12.10
2009,10,07,09,44,12.20
2009,10,07,09,45,12.20
2009,10,07,09,46,12.20
2009,10,07,09,47,12.20
2009,10,07,09,48,12.20
2009,10,07,09,49,12.20
2009,10,07,09,50,12.30
2009,10,07,09,51,12.30
2009,10,07,09,52,12.30
2009,10,07,09,53,12.40
2009,10,07,09,54,12.40
2009,10,07,09,55,12.40
2009,10,07,09,56,12.40
2009,10,07,09,57,12.40
2009,10,07,09,58,12.40
2009,10,07,09,59,12.40
2009,10,07,10,00,12.40
2009,10,07,10,01,12.40
2009,10,07,10,02,12.30
2009,10,07,10,03,12.30
2009,10,07,10,04,12.30
2009,10,07,10,05,12.40
2009,10,07,10,06,12.40
2009,10,07,10,07,12.40
2009,10,07,10,08,12.40
2009,10,07,10,09,12.40
2009,10,07,10,10,12.40
2009,10,07,10,11,12.40
2009,10,07,10,12,12.40
2009,10,07,10,13,12.50
2009,10,07,10,14,12.50
2009,10,07,10,15,12.50
2009,10,07,10,16,12.50
2009,10,07,10,17,12.50
2009,10,07,10,18,12.50
2009,10,07,10,19,12.60
2009,10,07,10,20,12.60
2009,10,07,10,21,12.60
2009,10,07,10,22,12.60
2009,10,07,10,23,12.60
2009,10,07,10,24,12.60
2009,10,07,10,25,12.60
2009,10,07,10,26,12.60
2009,10,07,10,27,12.70
2009,10,07,10,28,12.70
2009,10,07,10,29,12.70
2009,10,07,10,30,12.70
2009,10,07,10,31,12.70
2009,10,07,10,32,12.70
2009,10,07,10,33,12.70
2009,10,07,10,34,12.70
2009,10,07,10,35,12.70
2009,10,07,10,36,12.80
2009,10,07,10,37,12.80
2009,10,07,10,38,12.80
2009,10,07,10,39,12.80
2009,10,07,10,40,12.90
2009,10,07,10,41,12.90
2009,10,07,10,42,12.90
2009,10,07,10,43,12.90
2009,10,07,10,44,12.90
2009,10,07,10,45,12.90
2009,10,07,10,46,12.90
2009,10,07,10,47,12.90
2009,10,07,10,48,13.00
2009,10,07,10,49,13.00
2009,10,07,10,50,13.10
2009,10,07,10,51,13.10
2009,10,07,10,52,13.10
2009,10,07,10,53,13.10
2009,10,07,10,54,13.10
2009,10,07,10,55,13.10
2009,10,07,10,56,13.20
2009,10,07,10,57,13.20
2009,10,07,10,58,13.20
2009,10,07,10,59,13.20
2009,10,07,11,00,13.20
2009,10,07,11,01,13.30
2009,10,07,11,02,13.30
2009,10,07,11,03,13.30
2009,10,07,11,04,13.30
2009,10,07,11,05,13.30
2009,10,07,11,06,13.30
2009,10,07,11,07,13.30
2009,10,07,11,08,13.30
2009,10,07,11,09,13.30
2009,10,07,11,10,13.30
2009,10,07,11,11,13.40
2009,10,07,11,12,13.40
2009,10,07,11,13,13.50
2009,10,07,11,14,13.50
2009,10,07,11,15,13.50
2009,10,07,11,16,13.60
2009,10,07,11,17,13.60
2009,10,07,11,18,13.60
2009,10,07,11,19,13.60
2009,10,07,11,20,13.70
2009,10,07,11,21,13.70
2009,10,07,11,22,13.80
2009,10,07,11,23,13.80
2009,10,07,11,24,13.80
2009,10,07,11,25,13.80
2009,10,07,11,26,13.80
2009,10,07,11,27,13.90
2009,10,07,11,28,13.90
2009,10,07,11,29,13.90
2009,10,07,11,30,14.00
2009,10,07,11,31,14.00
2009,10,07,11,32,14.00
2009,10,07,11,33,14.00
2009,10,07,11,34,14.00
2009,10,07,11,35,14.00
2009,10,07,11,36,14.00
2009,10,07,11,37,14.10
2009,10,07,11,38,14.10
2009,10,07,11,39,14.10
2009,10,07,11,40,14.10
2009,10,07,11,41,14.10
2009,10,07,11,42,14.10
2009,10,07,11,43,14.20
2009,10,07,11,44,14.20
2009,10,07,11,45,14.20
2009,10,07,11,46,14.20
2009,10,07,11,47,14.30
2009,10,07,11,48,14.30
2009,10,07,11,49,14.40
2009,10,07,11,50,14.40
2009,10,07,11,51,14.40
2009,10,07,11,52,14.50
2009,10,07,11,53,14.50
2009,10,07,11,54,14.60
2009,10,07,11,55,14.60
2009,10,07,11,56,14.70
2009,10,07,11,57,14.70
2009,10,07,11,58,14.70
2009,10,07,11,59,14.80
2009,10,07,12,00,14.80
2009,10,07,12,01,14.80
2009,10,07,12,02,14.80
2009,10,07,12,03,14.80
2009,10,07,12,04,14.80
2009,10,07,12,05,14.80
2009,10,07,12,06,14.80
2009,10,07,12,07,14.80
2009,10,07,12,08,14.90
2009,10,07,12,09,15.00
2009,10,07,12,10,15.00
2009,10,07,12,11,15.00
2009,10,07,12,12,15.10
2009,10,07,12,13,15.00
2009,10,07,12,14,15.00
2009,10,07,12,15,15.00
2009,10,07,12,16,15.10
2009,10,07,12,17,15.10
2009,10,07,12,18,15.20
2009,10,07,12,19,15.20
2009,10,07,12,20,15.20
2009,10,07,12,21,15.20
2009,10,07,12,22,15.20
2009,10,07,12,23,15.20
2009,10,07,12,24,15.30
2009,10,07,12,25,15.30
2009,10,07,12,26,15.30
2009,10,07,12,27,15.40
2009,10,07,12,28,15.40
2009,10,07,12,29,15.40
2009,10,07,12,30,15.40
2009,10,07,12,31,15.40
2009,10,07,12,32,15.40
2009,10,07,12,33,15.30
2009,10,07,12,34,15.30
2009,10,07,12,35,15.30
2009,10,07,12,36,15.30
2009,10,07,12,37,15.30
2009,10,07,12,38,15.30
2009,10,07,12,39,15.40
2009,10,07,12,40,15.40
2009,10,07,12,41,15.40
2009,10,07,12,42,15.40
2009,10,07,12,43,15.40
2009,10,07,12,44,15.30
2009,10,07,12,45,15.30
2009,10,07,12,46,15.20
2009,10,07,12,47,15.20
2009,10,07,12,48,15.20
2009,10,07,12,49,15.10
2009,10,07,12,50,15.10
2009,10,07,12,51,15.00
2009,10,07,12,52,15.00
2009,10,07,12,53,15.00
2009,10,07,12,54,15.00
2009,10,07,12,55,15.00
2009,10,07,12,56,15.00
2009,10,07,12,57,15.00
2009,10,07,12,58,15.00
2009,10,07,12,59,15.10
2009,10,07,13,00,15.10
2009,10,07,13,01,15.10
2009,10,07,13,02,15.20
2009,10,07,13,03,15.20
2009,10,07,13,04,15.30
2009,10,07,13,05,15.30
2009,10,07,13,06,15.30
2009,10,07,13,07,15.30
2009,10,07,13,08,15.40
2009,10,07,13,09,15.40
2009,10,07,13,10,15.30
2009,10,07,13,11,15.30
2009,10,07,13,12,15.30
2009,10,07,13,13,15.30
2009,10,07,13,14,15.40
2009,10,07,13,15,15.40
2009,10,07,13,16,15.50
2009,10,07,13,17,15.50
2009,10,07,13,18,15.50
2009,10,07,13,19,15.60
2009,10,07,13,20,15.60
2009,10,07,13,21,15.60
2009,10,07,13,22,15.70
2009,10,07,13,23,15.70
2009,10,07,13,24,15.70
2009,10,07,13,25,15.60
2009,10,07,13,26,15.60
2009,10,07,13,27,15.60
2009,10,07,13,28,15.70
2009,10,07,13,29,15.70
2009,10,07,13,30,15.70
2009,10,07,13,31,15.70
2009,10,07,13,32,15.70
2009,10,07,13,33,15.70
2009,10,07,13,34,15.80
2009,10,07,13,35,15.80
2009,10,07,13,36,15.80
2009,10,07,13,37,15.70
2009,10,07,13,38,15.70
2009,10,07,13,39,15.70
2009,10,07,13,40,15.60
2009,10,07,13,41,15.60
2009,10,07,13,42,15.60
2009,10,07,13,43,15.70
2009,10,07,13,44,15.70
2009,10,07,13,45,15.70
2009,10,07,13,46,15.70
2009,10,07,13,47,15.70
2009,10,07,13,48,15.80
2009,10,07,13,49,15.80
2009,10,07,13,50,15.90
2009,10,07,13,51,15.90
2009,10,07,13,52,15.90
2009,10,07,13,53,15.90
2009,10,07,13,54,16.00
2009,10,07,13,55,16.00
2009,10,07,13,56,16.00
2009,10,07,13,57,15.90
2009,10,07,13,58,15.90
2009,10,07,13,59,15.90
2009,10,07,14,00,15.90
2009,10,07,14,01,15.90
2009,10,07,14,02,15.90
2009,10,07,14,03,15.90
2009,10,07,14,04,15.90
2009,10,07,14,05,15.90
2009,10,07,14,06,15.90
2009,10,07,14,07,15.90
2009,10,07,14,08,15.90
2009,10,07,14,09,15.90
2009,10,07,14,10,15.90
2009,10,07,14,11,15.80
2009,10,07,14,12,15.80
2009,10,07,14,13,15.80
2009,10,07,14,14,15.80
2009,10,07,14,15,15.80
2009,10,07,14,16,15.90
2009,10,07,14,17,15.90
2009,10,07,14,18,15.90
2009,10,07,14,19,15.90
2009,10,07,14,20,15.90
2009,10,07,14,21,15.90
2009,10,07,14,22,15.90
2009,10,07,14,23,16.00
2009,10,07,14,24,16.00
2009,10,07,14,25,16.10
2009,10,07,14,26,16.10
2009,10,07,14,27,16.00
2009,10,07,14,28,16.00
2009,10,07,14,29,16.00
2009,10,07,14,30,16.00
2009,10,07,14,31,16.10
2009,10,07,14,32,16.10
2009,10,07,14,33,16.10
2009,10,07,14,34,16.10
2009,10,07,14,35,16.10
2009,10,07,14,36,16.10
2009,10,07,14,37,16.10
2009,10,07,14,38,16.10
2009,10,07,14,39,16.10
2009,10,07,14,40,16.10
2009,10,07,14,41,16.10
2009,10,07,14,42,16.20
2009,10,07,14,43,16.20
2009,10,07,14,44,16.20
2009,10,07,14,45,16.20
2009,10,07,14,46,16.20
2009,10,07,14,47,16.20
2009,10,07,14,48,16.20
2009,10,07,14,49,16.10
2009,10,07,14,50,16.10
2009,10,07,14,51,16.10
2009,10,07,14,52,16.10
2009,10,07,14,53,16.10
2009,10,07,14,54,16.10
2009,10,07,14,55,16.10
2009,10,07,14,56,16.10
2009,10,07,14,57,16.10
2009,10,07,14,58,16.10
2009,10,07,14,59,16.20
2009,10,07,15,00,16.20
2009,10,07,15,01,16.30
2009,10,07,15,02,16.30
2009,10,07,15,03,16.40
2009,10,07,15,04,16.40
2009,10,07,15,05,16.40
2009,10,07,15,06,16.50
2009,10,07,15,07,16.50
2009,10,07,15,08,16.60
2009,10,07,15,09,16.60
2009,10,07,15,10,16.60
2009,10,07,15,11,16.70
2009,10,07,15,12,16.70
2009,10,07,15,13,16.70
2009,10,07,15,14,16.80
2009,10,07,15,15,16.80
2009,10,07,15,16,16.80
2009,10,07,15,17,16.80
2009,10,07,15,18,16.80
2009,10,07,15,19,16.80
2009,10,07,15,20,16.80
2009,10,07,15,21,16.80
2009,10,07,15,22,16.80
2009,10,07,15,23,16.80
2009,10,07,15,24,16.80
2009,10,07,15,25,16.80
2009,10,07,15,26,16.70
2009,10,07,15,27,16.70
2009,10,07,15,28,16.70
2009,10,07,15,29,16.70
2009,10,07,15,30,16.70
2009,10,07,15,31,16.60
2009,10,07,15,32,16.60
2009,10,07,15,33,16.50
2009,10,07,15,34,16.50
2009,10,07,15,35,16.50
2009,10,07,15,36,16.50
2009,10,07,15,37,16.60
2009,10,07,15,38,16.60
2009,10,07,15,39,16.60
2009,10,07,15,40,16.70
2009,10,07,15,41,16.70
2009,10,07,15,42,16.70
2009,10,07,15,43,16.70
2009,10,07,15,44,16.70
2009,10,07,15,45,16.70
2009,10,07,15,46,16.70
2009,10,07,15,47,16.70
2009,10,07,15,48,16.80
2009,10,07,15,49,16.80
2009,10,07,15,50,16.80
2009,10,07,15,51,16.90
2009,10,07,15,52,16.90
2009,10,07,15,53,17.00
2009,10,07,15,54,17.00
2009,10,07,15,55,17.10
2009,10,07,15,56,17.10
2009,10,07,15,57,17.10
2009,10,07,15,58,17.20
2009,10,07,15,59,17.20
2009,10,07,16,00,17.20
2009,10,07,16,01,17.30
2009,10,07,16,02,17.30
2009,10,07,16,03,17.40
2009,10,07,16,04,17.40
2009,10,07,16,05,17.50
2009,10,07,16,06,17.50
2009,10,07,16,07,17.60
2009,10,07,16,08,17.60
2009,10,07,16,09,17.70
2009,10,07,16,10,17.70
2009,10,07,16,11,17.70
2009,10,07,16,12,17.80
2009,10,07,16,13,17.80
2009,10,07,16,14,17.80
2009,10,07,16,15,17.80
2009,10,07,16,16,17.80
2009,10,07,16,17,17.70
2009,10,07,16,18,17.70
2009,10,07,16,19,17.60
2009,10,07,16,20,17.60
2009,10,07,16,21,17.60
2009,10,07,16,22,17.60
2009,10,07,16,23,17.60
2009,10,07,16,24,17.50
2009,10,07,16,25,17.50
2009,10,07,16,26,17.50
2009,10,07,16,27,17.40
2009,10,07,16,28,17.40
2009,10,07,16,29,17.40
2009,10,07,16,30,17.40
2009,10,07,16,31,17.40
2009,10,07,16,32,17.50
2009,10,07,16,33,17.50
2009,10,07,16,34,17.60
2009,10,07,16,35,17.60
2009,10,07,16,36,17.60
2009,10,07,16,37,17.60
2009,10,07,16,38,17.60
2009,10,07,16,39,17.60
2009,10,07,16,40,17.60
2009,10,07,16,41,17.50
2009,10,07,16,42,17.50
2009,10,07,16,43,17.50
2009,10,07,16,44,17.50
2009,10,07,16,45,17.50
2009,10,07,16,46,17.50
2009,10,07,16,47,17.50
2009,10,07,16,48,17.40
2009,10,07,16,49,17.40
2009,10,07,16,50,17.40
2009,10,07,16,51,17.30
2009,10,07,16,52,17.30
2009,10,07,16,53,17.30
2009,10,07,16,54,17.30
2009,10,07,16,55,17.30
2009,10,07,16,56,17.30
2009,10,07,16,57,17.30
2009,10,07,16,58,17.20
2009,10,07,16,59,17.20
2009,10,07,17,00,17.20
2009,10,07,17,01,17.20
2009,10,07,17,02,17.20
2009,10,07,17,03,17.10
2009,10,07,17,04,17.10
2009,10,07,17,05,17.10
2009,10,07,17,06,17.10
2009,10,07,17,07,17.00
2009,10,07,17,08,17.00
2009,10,07,17,09,17.00
2009,10,07,17,10,17.00
2009,10,07,17,11,16.90
2009,10,07,17,12,16.90
2009,10,07,17,13,16.90
2009,10,07,17,14,16.90
2009,10,07,17,15,16.90
2009,10,07,17,16,16.90
2009,10,07,17,17,16.80
2009,10,07,17,18,16.80
2009,10,07,17,19,16.80
2009,10,07,17,20,16.80
2009,10,07,17,21,16.80
2009,10,07,17,22,16.80
2009,10,07,17,23,16.80
2009,10,07,17,24,16.80
2009,10,07,17,25,16.80
2009,10,07,17,26,16.70